Simultaneous Nadir Overpasses (SNOs) Predictions

Prediction of SNOs between METOP-B and NOAA-19 Satellite Orbit:

Table of predicted SNOs for the next 14.0 days since TLE Epoch: 8/31/2024
Index Date (METOP-B) Time (METOP-B) Lat,Lon (METOP-B) SZA (METOP-B ) Date (NOAA-19) Time (NOAA-19) Lat,Lon (NOAA-19) SZA (NOAA-19 ) Distance(km) Time Diff (sec)
1 09/10/2024 19:41:04 -81.10, 98.90 101.82 09/10/2024 19:39:49 -80.62, 99.60 102.18 54.77 75
2 09/10/2024 20:27:02 73.39, -17.37 91.37 09/10/2024 20:26:00 73.40, -17.40 91.29 1.51 62
3 09/10/2024 21:17:30 -72.79, 151.23 88.07 09/10/2024 21:16:48 -72.80, 151.21 88.13 0.98 42
4 09/10/2024 22:08:00 72.19, -40.24 92.50 09/10/2024 22:07:33 72.17, -40.20 92.49 2.33 27
5 09/10/2024 22:58:23 -71.32, 128.66 86.72 09/10/2024 22:58:16 -71.31, 128.70 86.71 1.97 7
6 09/10/2024 23:48:57 70.91, -63.32 93.68 09/10/2024 23:49:06 70.91, -63.33 93.68 0.51 9
7 09/11/2024 00:39:22 -70.14, 105.23 85.64 09/11/2024 00:39:51 -70.15, 105.20 85.62 1.63 29
8 09/11/2024 01:29:44 69.07, -85.91 95.32 09/11/2024 01:30:28 69.05, -85.87 95.40 3.11 44



Historial Predications of SNOs between METOP-B and NOAA-19
